Wind_Speed
38 32 36 35 34 35 38 41 44 46 49 48 50 52 54 55 56 58 56 58 60 62 61 57 50 56 54 54 61 56 59 55 55 55 56 58 57 51 51 52 51 51 48
33 33 36 39 41 43 44 44 46 48 50 51 53 56 57 58 57 60 60 58 57 59 60 54 54 61 64 67 69 68 62 61 61 62 63 64 66 63 61 60 59 58 57
34 38 39 39 41 43 45 46 48 49 50 51 52 54 54 56 55 58 60 61 63 64 65 65 69 70 71 72 72 71 71 69 69 69 66 67 67 66 64 63 61 60 60
35 37 40 41 41 41 43 45 48 49 51 53 55 57 59 61 62 65 66 67 67 68 70 70 71 72 71 72 72 71 71 71 73 74 71 68 67 64 62 60 59 60 59
33 34 35 36 38 39 41 44 47 49 52 55 57 59 62 63 65 66 68 69 69 70 71 72 75 75 76 77 76 75 74 75 76 76 73 69 62 60 57 56 55 52 50
29 31 33 36 40 42 42 45 47 50 53 56 59 62 64 67 69 70 70 71 73 74 75 77 78 79 80 80 79 77 76 76 78 75 71 65 58 51 46 48 49 51 52
29 31 33 34 36 40 44 46 50 54 57 60 63 65 66 68 70 71 72 72 72 71 69 66 64 63 64 65 64 64 61 60 59 56 53 51 50 47 45 45 47 48 46
26 28 32 37 42 45 49 51 53 56 60 62 63 63 62 59 59 58 58 58 57 57 57 56 56 56 57 58 57 57 58 59 58 55 51 47 43 40 38 39 38 40 40
30 33 37 41 43 46 49 53 55 55 53 50 49 50 52 55 59 61 62 63 62 61 60 58 56 56 56 56 56 56 55 52 53 50 48 45 41 39 38 35 34 36 31
32 36 41 44 46 49 50 48 46 44 46 48 52 55 58 59 60 61 60 58 57 58 59 60 60 60 59 60 60 59 57 57 59 57 54 50 46 44 42 38 35 33 31
39 41 45 46 48 44 43 41 43 44 49 51 52 52 52 54 57 58 57 52 48 43 42 44 46 47 48 49 49 50 52 57 59 57 54 53 51 46 45 43 38 33 29
42 46 47 48 40 40 39 41 44 47 46 46 50 55 59 58 55 53 53 49 39 34 35 37 39 42 43 43 45 47 49 49 52 57 55 52 52 50 49 48 45 35 28
47 48 46 37 35 37 39 42 43 40 45 51 53 49 47 49 50 48 42 37 32 31 35 33 32 34 35 35 35 37 38 39 40 38 43 49 49 46 44 45 46 36 29
49 41 32 30 33 36 40 36 36 44 48 47 43 43 42 41 41 34 25 24 21 27 29 28 28 27 24 23 25 26 27 27 28 29 32 34 35 36 35 36 39 37 33
32 28 26 28 32 37 32 32 43 42 41 39 37 33 32 35 31 24 17 13 13 14 15 13 13 13 15 17 19 21 21 20 16 14 17 21 26 28 28 25 26 36 35
24 24 25 28 32 28 28 38 39 41 38 35 33 27 26 27 23 19 16 15 16 15 15 16 20 19 20 16 15 19 21 16 11 12 9 10 13 17 21 22 23 27 32
22 22 25 27 26 23 31 37 40 36 33 32 22 20 22 22 21 22 23 24 25 23 21 18 23 25 23 22 25 19 17 23 18 13 17 13 11 12 15 16 19 23 26
20 21 24 27 18 22 30 32 35 30 30 29 24 24 24 24 25 25 26 27 29 32 33 31 31 27 22 24 25 23 22 16 13 11 7 7 6 7 13 16 18 20 21
17 19 22 21 15 19 24 28 27 29 29 27 26 27 28 28 28 29 26 25 26 25 21 26 27 21 17 27 30 27 27 26 29 26 16 14 13 11 10 12 13 15 17
15 16 20 16 10 16 18 20 24 27 30 27 26 26 26 26 27 28 26 24 21 19 21 26 29 27 27 32 36 32 29 28 30 31 31 29 21 15 12 11 11 12 14
13 13 16 13 6 12 13 15 19 22 23 26 25 24 21 21 22 21 23 21 26 30 26 21 25 30 28 27 36 35 34 34 35 33 29 27 26 24 21 21 17 16 16
10 10 12 12 5 9 10 11 14 14 18 18 19 19 22 19 25 27 20 20 24 28 24 25 27 28 26 27 28 29 31 33 34 31 26 23 23 21 16 13 13 15 12
7 7 9 13 7 6 10 13 14 11 10 13 16 16 17 18 14 26 19 17 13 17 16 17 19 21 22 23 24 27 26 23 28 33 32 26 27 30 26 17 16 12 13
6 3 6 11 11 7 7 10 13 14 15 12 11 12 13 15 15 13 20 19 15 16 13 12 15 15 16 18 19 21 23 24 23 25 24 25 25 20 20 21 20 20 20
3 2 4 7 9 9 7 7 9 12 13 14 14 14 11 10 12 8 7 13 14 10 9 11 9 14 12 11 12 14 15 17 17 18 20 20 21 20 19 18 18 17 15
2 2 3 6 6 7 8 8 7 9 11 13 14 12 12 13 14 15 11 9 8 2 7 9 11 16 16 15 11 10 10 10 12 13 13 13 14 13 13 13 13 12 11
Wind_Direction
241 249 256 259 262 264 265 265 271 273 274 275 277 278 277 277 277 278 276 276 273 277 281 281 276 282 282 279 283 284 283 283 283 281 281 281 283 280 281 280 280 280 278
250 250 251 253 257 261 266 269 269 270 273 275 274 273 273 272 273 275 276 273 272 275 276 276 273 277 268 276 278 277 278 277 277 277 278 278 277 278 278 279 279 278 277
253 255 259 263 268 269 270 271 271 271 271 272 273 276 277 278 279 278 278 278 279 278 278 277 278 280 279 279 279 278 278 278 277 276 273 273 273 274 275 276 277 278 276
268 269 272 270 270 273 275 277 278 278 279 281 282 282 281 280 281 280 280 279 278 278 278 278 279 279 278 277 276 276 276 277 276 276 275 274 274 276 278 279 278 276 275
267 268 268 273 273 272 273 276 279 282 283 283 283 283 283 283 281 281 281 281 282 281 281 280 279 278 278 279 279 279 280 280 279 279 279 279 281 278 275 273 273 270 268
273 278 278 276 278 282 284 283 283 282 282 282 282 282 282 282 282 282 282 282 281 281 281 282 282 281 281 280 280 281 281 281 279 281 280 277 275 274 273 271 269 269 268
279 279 282 288 289 288 288 288 287 286 285 284 283 283 282 282 281 281 281 281 281 282 283 282 282 283 282 282 282 281 280 279 282 283 281 277 275 275 273 271 269 271 272
286 294 297 297 296 293 290 289 289 289 288 289 290 291 291 290 289 289 288 286 285 283 281 280 280 278 277 277 278 278 278 278 279 281 282 280 276 274 272 272 268 265 273
295 294 301 303 300 297 296 294 293 294 295 295 295 296 297 296 294 291 289 287 285 282 280 278 277 276 274 274 273 271 271 271 272 273 274 274 271 270 269 271 270 265 271
299 303 305 306 303 301 298 297 297 297 300 302 301 299 296 294 293 293 292 291 288 284 281 279 278 276 274 273 273 272 271 270 269 270 269 268 268 269 270 269 267 264 268
308 306 307 304 304 301 299 301 305 307 305 304 302 301 301 300 297 296 293 289 287 285 282 280 280 280 280 280 279 279 277 273 270 266 264 264 266 267 267 266 260 256 262
307 308 307 306 301 302 307 311 312 312 309 307 305 302 299 298 298 297 294 286 282 291 293 290 286 284 283 283 281 280 280 281 276 262 258 261 261 263 264 260 256 253 254
307 307 306 302 308 312 315 316 316 313 310 309 311 312 315 315 312 305 293 281 280 290 295 296 298 294 290 289 290 290 289 285 279 273 258 255 256 257 258 256 251 243 243
309 308 307 313 316 317 319 321 317 316 320 321 323 325 328 333 330 324 306 283 275 286 293 296 300 304 304 306 310 309 304 294 283 269 259 251 252 252 253 250 242 234 233
308 310 314 319 320 321 323 322 326 330 334 333 332 332 335 347 347 352 354 338 325 321 327 341 350 358 2 2 356 347 343 337 324 295 269 254 244 243 245 243 235 226 228
312 316 320 324 324 326 327 332 338 342 342 339 336 338 342 350 356 5 9 27 43 43 52 56 36 25 10 355 347 353 1 351 11 359 326 280 251 242 240 235 230 220 214
316 319 325 326 329 333 334 342 349 352 353 349 356 7 12 19 26 35 43 53 58 57 56 44 35 40 27 34 21 8 9 352 323 303 286 290 261 235 216 209 209 206 206
317 323 328 329 332 335 344 358 359 10 10 19 40 35 35 43 47 51 61 67 62 61 66 50 42 33 34 23 26 30 18 14 3 350 308 229 211 205 197 188 188 193 197
314 329 331 337 342 343 0 13 14 27 32 47 50 55 58 60 63 63 65 62 61 56 51 39 32 31 20 25 27 35 40 44 45 47 61 110 133 146 155 157 163 176 186
320 335 337 345 350 358 20 28 21 30 40 48 52 57 62 63 63 63 59 56 49 48 56 50 51 48 53 53 44 49 60 58 56 57 66 80 93 110 128 146 162 172 171
327 343 344 353 351 5 22 32 28 30 41 49 51 51 55 57 48 43 53 47 62 57 62 49 54 57 54 61 52 51 57 63 62 64 67 75 77 80 111 107 108 111 129
325 346 360 358 341 354 356 5 17 14 24 33 38 45 45 45 41 32 34 58 70 56 74 50 57 58 55 54 41 46 55 63 61 64 70 69 67 71 98 107 112 117 122
309 347 16 19 352 326 342 347 7 10 9 15 23 18 12 28 28 23 36 37 43 41 61 55 43 55 49 56 50 46 57 58 59 65 51 56 68 67 71 97 106 96 114
285 322 25 36 25 347 316 328 336 348 3 5 2 5 3 10 24 18 29 30 50 84 57 32 32 43 46 43 43 46 53 50 52 57 53 56 66 71 67 76 78 78 88
254 293 27 31 34 24 349 316 320 332 343 355 3 8 9 354 345 358 338 11 23 15 8 2 1 10 18 32 41 34 29 52 58 54 60 57 62 62 63 65 67 67 72
248 287 13 26 18 23 24 6 337 319 327 334 341 350 358 0 359 354 322 313 341 357 15 6 348 339 342 350 6 25 32 25 33 46 52 49 53 60 64 61 57 56 59
Height
5756 5757 5757 5759 5758 5759 5761 5761 5760 5760 5760 5758 5757 5755 5753 5750 5747 5745 5741 5740 5737 5734 5729 5727 5724 5721 5718 5717 5713 5710 5708 5704 5705 5708 5703 5701 5701 5698 5698 5698 5698 5698 5698
5746 5746 5747 5749 5749 5750 5752 5752 5752 5750 5748 5746 5743 5741 5739 5735 5731 5730 5727 5724 5721 5719 5714 5713 5707 5707 5707 5702 5698 5696 5693 5691 5688 5692 5689 5687 5685 5683 5683 5683 5682 5682 5682
5739 5741 5741 5741 5741 5741 5741 5741 5740 5738 5735 5732 5730 5727 5724 5721 5718 5715 5713 5709 5705 5702 5699 5697 5693 5690 5688 5686 5683 5680 5678 5673 5670 5671 5673 5670 5668 5666 5665 5665 5666 5666 5665
5737 5737 5738 5736 5732 5730 5729 5727 5725 5721 5719 5716 5714 5712 5708 5703 5699 5696 5693 5691 5688 5686 5682 5678 5674 5672 5669 5667 5664 5660 5657 5653 5651 5650 5650 5650 5649 5649 5648 5648 5648 5646 5648
5731 5731 5729 5729 5728 5724 5721 5718 5716 5712 5707 5703 5699 5695 5690 5685 5682 5679 5675 5672 5667 5663 5659 5654 5652 5648 5646 5644 5640 5638 5633 5631 5630 5630 5629 5628 5630 5630 5629 5628 5629 5629 5630
5724 5723 5722 5719 5717 5714 5710 5707 5702 5699 5695 5690 5685 5680 5674 5668 5663 5657 5652 5648 5644 5641 5638 5634 5630 5628 5625 5623 5619 5615 5614 5613 5611 5607 5604 5605 5609 5610 5611 5611 5611 5611 5612
5717 5715 5714 5711 5707 5702 5697 5693 5688 5683 5678 5672 5666 5660 5655 5649 5643 5638 5634 5630 5627 5623 5619 5615 5611 5607 5604 5602 5599 5597 5596 5593 5591 5588 5586 5589 5590 5594 5594 5595 5596 5594 5596
5711 5708 5704 5700 5696 5692 5686 5680 5674 5669 5662 5655 5648 5642 5637 5630 5625 5620 5617 5613 5610 5607 5603 5598 5595 5592 5589 5585 5584 5582 5581 5579 5576 5573 5571 5573 5576 5579 5580 5581 5581 5582 5583
5703 5699 5696 5691 5685 5679 5673 5667 5660 5654 5647 5641 5633 5628 5622 5616 5609 5604 5599 5595 5592 5588 5584 5581 5578 5575 5570 5567 5566 5566 5565 5564 5561 5560 5560 5561 5564 5567 5569 5569 5572 5571 5574
5695 5691 5686 5680 5673 5668 5661 5655 5649 5641 5635 5628 5620 5613 5605 5599 5591 5585 5579 5575 5572 5567 5564 5561 5557 5554 5551 5550 5549 5548 5549 5548 5545 5546 5547 5548 5550 5553 5555 5558 5560 5562 5563
5685 5680 5674 5669 5663 5656 5650 5644 5638 5630 5622 5614 5605 5596 5590 5583 5576 5568 5561 5558 5555 5553 5549 5545 5541 5538 5536 5534 5531 5531 5530 5528 5528 5529 5531 5533 5535 5539 5542 5544 5548 5552 5554
5675 5669 5663 5657 5650 5645 5639 5633 5625 5617 5608 5601 5593 5584 5575 5566 5557 5550 5544 5541 5540 5539 5535 5532 5529 5525 5523 5520 5517 5514 5511 5509 5507 5507 5513 5517 5519 5522 5526 5529 5535 5542 5546
5665 5659 5652 5646 5641 5636 5630 5623 5615 5607 5599 5590 5579 5568 5558 5548 5538 5529 5524 5524 5526 5526 5525 5522 5519 5516 5512 5509 5506 5502 5498 5493 5491 5490 5492 5498 5503 5508 5511 5516 5522 5532 5537
5654 5648 5643 5639 5634 5629 5623 5616 5609 5599 5588 5576 5566 5556 5547 5536 5525 5516 5513 5512 5514 5516 5516 5513 5511 5508 5506 5502 5498 5493 5487 5481 5477 5476 5479 5483 5490 5495 5499 5503 5509 5519 5527
5645 5642 5638 5634 5629 5622 5617 5610 5600 5589 5579 5568 5559 5552 5544 5534 5525 5517 5512 5511 5510 5510 5510 5510 5509 5507 5503 5499 5495 5490 5484 5477 5472 5471 5473 5475 5480 5485 5490 5495 5500 5508 5518
5640 5637 5634 5630 5624 5617 5610 5603 5593 5583 5573 5564 5555 5548 5542 5535 5528 5521 5517 5513 5511 5511 5511 5511 5509 5506 5503 5500 5496 5490 5483 5477 5475 5473 5473 5474 5476 5479 5484 5489 5494 5501 5509
5636 5633 5630 5625 5619 5614 5608 5599 5590 5582 5572 5561 5552 5548 5543 5537 5531 5526 5522 5519 5517 5516 5516 5515 5513 5510 5506 5501 5495 5489 5485 5479 5474 5471 5471 5472 5473 5476 5480 5485 5490 5497 5504
5634 5630 5626 5621 5617 5612 5606 5598 5591 5582 5572 5562 5556 5551 5546 5541 5536 5533 5530 5529 5526 5524 5523 5521 5519 5516 5511 5505 5499 5492 5485 5479 5474 5469 5467 5468 5472 5476 5479 5484 5490 5496 5502
5631 5628 5624 5619 5615 5611 5605 5600 5593 5585 5578 5570 5564 5558 5553 5548 5545 5542 5539 5536 5534 5533 5531 5528 5525 5520 5516 5511 5504 5497 5491 5486 5480 5473 5469 5469 5474 5479 5483 5487 5492 5497 5503
5629 5626 5621 5617 5613 5610 5605 5602 5595 5589 5583 5576 5570 5565 5561 5558 5554 5551 5549 5546 5542 5540 5538 5536 5531 5527 5523 5519 5512 5505 5500 5496 5491 5487 5483 5482 5483 5485 5488 5491 5496 5500 5504
5627 5624 5620 5615 5612 5609 5606 5603 5599 5594 5588 5583 5578 5573 5569 5565 5562 5559 5556 5552 5550 5547 5544 5542 5539 5536 5532 5527 5523 5518 5513 5508 5504 5501 5499 5498 5498 5498 5499 5501 5504 5506 5509
5624 5622 5618 5614 5611 5608 5606 5603 5601 5597 5593 5589 5584 5580 5577 5573 5568 5564 5561 5559 5557 5556 5553 5550 5547 5544 5541 5537 5532 5529 5525 5520 5516 5513 5511 5510 5510 5510 5510 5511 5512 5514 5515
5622 5620 5617 5613 5610 5608 5605 5602 5600 5598 5595 5592 5589 5585 5581 5579 5575 5571 5566 5565 5564 5561 5559 5557 5554 5552 5547 5544 5541 5538 5535 5532 5529 5525 5524 5520 5520 5520 5518 5519 5520 5523 5523
5619 5618 5615 5613 5610 5607 5605 5603 5600 5598 5595 5592 5590 5587 5584 5581 5580 5577 5573 5570 5568 5566 5564 5562 5559 5558 5556 5552 5549 5546 5543 5540 5537 5535 5534 5531 5531 5531 5531 5530 5530 5530 5530
5616 5615 5614 5612 5609 5607 5604 5603 5601 5598 5596 5593 5590 5588 5585 5582 5580 5579 5577 5575 5573 5572 5569 5566 5563 5561 5560 5558 5556 5553 5551 5548 5545 5543 5542 5542 5540 5539 5539 5539 5539 5539 5539
5614 5614 5612 5611 5609 5607 5605 5602 5600 5598 5596 5593 5591 5589 5587 5584 5581 5578 5576 5575 5574 5572 5570 5568 5566 5564 5561 5560 5560 5558 5556 5553 5551 5548 5546 5546 5546 5546 5545 5545 5545 5545 5545